Weather History for LZIB - December, 2013

Change the Weather History Date:

Wednesday, December 18, 2013

  Actual Average Record
Temperature  
Mean Temperature 28 °F -  
Max Temperature 29 °F 35 °F 49 °F (2014)
Min Temperature 28 °F 25 °F 10 °F (2010)
Degree Days  
Heating Degree Days 36    
Moisture  
Dew Point 29 °F    
Average Humidity 97    
Maximum Humidity 100    
Minimum Humidity 92    
Precipitation  
Precipitation 0.00 in - - ()
Sea Level Pressure  
Sea Level Pressure 30.41 in    
Wind  
Wind Speed 7 mph ()    
Max Wind Speed 10 mph    
Max Gust Speed -    
Visibility 3.6 miles    
Events Rain    
Averages and records for this station are not official NWS values.
T = Trace of Precipitation, MM = Missing Value Source: Averaged Metar Reports

Daily Weather History Graph

Daily Weather History Graph

Search for Another Location

Airport or City:

Trip Planner

Search our weather history database for the weather conditions in past years. The results will help you decide how hot, cold, wet, or windy it might be!

Date:

Astronomy

Dec. 18, 2013 Rise Set
Actual Time 7:37 AM CET 3:58 PM CET
Civil Twilight 7:00 AM CET 4:35 PM CET
Nautical Twilight 6:20 AM CET 5:14 PM CET
Astronomical Twilight 5:42 AM CET 5:52 PM CET
Moon 5:20 PM CET (12/18) 7:58 AM CET (12/18)
Length of Visible Light 9h 34m
Length of Day
8h 21m
Full, 99% of the Moon is Illuminated
Dec 18
Full
Dec 25
Last Quarter
Jan 1
New
Jan 8
First Quarter
Jan 16
Full

Hourly Weather History & Observations

Time (CET) Temp. Windchill Dew Point Humidity Pressure Visibility Wind Dir Wind Speed Gust Speed Precip Events Conditions
12:00 AM 30 °F - 29 °F 95% 30.53 in 4 mi SE 6.7 mph - -   Mist
12:00 AM 30.2 °F 22.6 °F 28.4 °F 93% 30.48 in 3.7 mi SE 8.1 mph - N/A   Overcast
12:30 AM 30.2 °F 22.6 °F 28.4 °F 93% 30.48 in 3.7 mi SE 8.1 mph - N/A   Overcast
1:00 AM 30 °F - 29 °F 97% 30.52 in 3 mi SE 6.7 mph - - Rain Light Freezing Drizzle
1:00 AM 30.2 °F 23.4 °F 30.2 °F 100% 30.48 in - SE 6.9 mph - N/A   Light Freezing Rain
1:30 AM 30.2 °F 23.4 °F 30.2 °F 100% 30.48 in 2.8 mi SE 6.9 mph - N/A   Light Freezing Rain
2:00 AM 30.2 °F 22.6 °F 30.2 °F 100% 30.48 in 2.8 mi SE 8.1 mph - N/A   Light Freezing Rain
2:30 AM 30.2 °F 23.4 °F 30.2 °F 100% 30.48 in - SE 6.9 mph - N/A   Light Freezing Rain
3:00 AM 30 °F - 30 °F 100% 30.50 in 2 mi SE 8.9 mph - - Rain Light Freezing Drizzle
3:00 AM 30.2 °F 22.6 °F 30.2 °F 100% 30.45 in 1.7 mi SE 8.1 mph - N/A   Light Freezing Rain
3:30 AM 30.2 °F 22.6 °F 30.2 °F 100% 30.45 in 1.7 mi SE 8.1 mph - N/A   Light Freezing Rain
4:00 AM 30 °F - 30 °F 100% 30.48 in 1 mi SE 8.9 mph - - Rain Light Freezing Drizzle
4:00 AM 30.2 °F 22.6 °F 30.2 °F 100% 30.45 in 1.4 mi SE 8.1 mph - N/A   Light Freezing Rain
4:30 AM 30.2 °F 21.9 °F 30.2 °F 100% 30.42 in 1.6 mi SE 9.2 mph - N/A   Light Freezing Rain
5:00 AM 30 °F - 30 °F 100% 30.47 in 2 mi SE 8.9 mph - - Rain Light Freezing Drizzle
5:00 AM 30.2 °F 22.6 °F 30.2 °F 100% 30.42 in 1.9 mi SE 8.1 mph - N/A   Light Freezing Rain
5:30 AM 30.2 °F 21.9 °F 30.2 °F 100% 30.42 in 1.9 mi SE 9.2 mph - N/A   Light Freezing Rain
6:00 AM 30 °F - 30 °F 100% 30.47 in 2 mi SE 8.9 mph - - Rain Light Freezing Drizzle
6:00 AM 30.2 °F 21.9 °F 30.2 °F 100% 30.42 in 1.9 mi SE 9.2 mph - N/A   Light Freezing Rain
6:30 AM 30.2 °F 21.9 °F 30.2 °F 100% 30.42 in 1.9 mi SE 9.2 mph - N/A   Light Freezing Rain
7:00 AM 30 °F - 30 °F 99% 30.47 in 2 mi SE 8.9 mph - - Rain Light Freezing Drizzle
7:00 AM 30.2 °F 22.6 °F 30.2 °F 100% 30.42 in 2.5 mi SE 8.1 mph - N/A   Light Freezing Rain
7:30 AM 30.2 °F 22.6 °F 30.2 °F 100% 30.42 in 2.2 mi SE 8.1 mph - N/A   Light Freezing Rain
8:00 AM 30 °F - 30 °F 98% 30.48 in 2 mi SE 8.9 mph - - Rain Light Freezing Drizzle
8:00 AM 30.2 °F 22.6 °F 30.2 °F 100% 30.42 in 2.2 mi SE 8.1 mph - N/A   Light Freezing Rain
8:30 AM 30.2 °F 22.6 °F 30.2 °F 100% 30.45 in 2.5 mi SE 8.1 mph - N/A   Light Freezing Rain
9:00 AM 30 °F - 29 °F 97% 30.48 in 2 mi SE 6.7 mph - - Rain Light Freezing Drizzle
9:00 AM 30.2 °F 23.4 °F 30.2 °F 100% 30.45 in 2.5 mi SE 6.9 mph - N/A   Light Freezing Rain
9:30 AM 30.2 °F 22.6 °F 28.4 °F 93% 30.45 in 2.5 mi SE 8.1 mph - N/A   Light Freezing Rain
10:00 AM 29 °F - 29 °F 100% 30.48 in 2 mi SE 8.9 mph - - Rain Light Freezing Drizzle
10:00 AM 30.2 °F 21.9 °F 28.4 °F 93% 30.45 in 2.2 mi SE 9.2 mph - N/A   Light Freezing Rain
10:30 AM 30.2 °F 21.9 °F 30.2 °F 100% 30.42 in 2.2 mi SE 9.2 mph - N/A   Light Freezing Rain
11:00 AM 29 °F - 29 °F 100% 30.47 in 2 mi SE 8.9 mph - - Rain Light Freezing Drizzle
11:00 AM 30.2 °F 22.6 °F 28.4 °F 93% 30.42 in 2.5 mi SE 8.1 mph - N/A   Light Freezing Rain
11:30 AM 30.2 °F 23.4 °F 28.4 °F 93% 30.42 in 2.8 mi SE 6.9 mph - N/A   Light Freezing Rain
12:00 PM 30.2 °F 24.3 °F 28.4 °F 93% 30.42 in 2.8 mi SE 5.8 mph - N/A   Light Freezing Rain
12:30 PM 30.2 °F 23.4 °F 28.4 °F 93% 30.42 in 2.8 mi SE 6.9 mph - N/A   Light Freezing Rain
1:00 PM 29 °F - 29 °F 100% 30.44 in 4 mi ESE 6.7 mph - - Rain Light Freezing Drizzle
1:00 PM 30.2 °F 23.4 °F 28.4 °F 93% 30.39 in 3.7 mi SE 6.9 mph - N/A   Light Freezing Rain
1:30 PM 30.2 °F 23.4 °F 28.4 °F 93% 30.39 in 3.7 mi ESE 6.9 mph - N/A   Light Freezing Rain
2:00 PM 29 °F - 29 °F 99% 30.43 in 4 mi SE 4.5 mph - - Rain Light Freezing Drizzle
2:00 PM 30.2 °F 26.7 °F 28.4 °F 93% 30.39 in 3.7 mi SE 3.5 mph - N/A   Light Freezing Rain
2:30 PM 30.2 °F 25.4 °F 28.4 °F 93% 30.39 in 3.7 mi SE 4.6 mph - N/A   Light Freezing Rain
3:00 PM 29 °F - 29 °F 98% 30.43 in 4 mi SE 4.5 mph - - Rain Light Freezing Drizzle
3:00 PM 30.2 °F 25.4 °F 28.4 °F 93% 30.39 in 3.7 mi SSE 4.6 mph - N/A   Light Freezing Rain
3:30 PM 30.2 °F 24.3 °F 28.4 °F 93% 30.36 in 3.7 mi SE 5.8 mph - N/A   Light Freezing Rain
4:00 PM 29 °F - 29 °F 98% 30.42 in 4 mi SE 4.5 mph - - Rain Light Freezing Drizzle
4:00 PM 30.2 °F 24.3 °F 28.4 °F 93% 30.36 in 3.7 mi SE 5.8 mph - N/A   Light Freezing Rain
4:30 PM 28.4 °F - 28.4 °F 100% 30.36 in 5.0 mi ESE 2.3 mph - N/A   Light Freezing Rain
5:00 PM 29 °F - 28 °F 94% 30.42 in 6 mi ESE 4.5 mph - - Rain Light Freezing Drizzle
5:00 PM 28.4 °F 23.3 °F 28.4 °F 100% 30.36 in 6.2 mi SE 4.6 mph - N/A   Light Freezing Drizzle
5:30 PM 28.4 °F 23.3 °F 28.4 °F 100% 30.36 in 6.2 mi SE 4.6 mph - N/A   Light Freezing Drizzle
6:00 PM 29 °F - 28 °F 94% 30.41 in 6 mi SE 4.5 mph - - Rain Light Freezing Drizzle
6:00 PM 28.4 °F 22.2 °F 28.4 °F 100% 30.36 in 6.2 mi SE 5.8 mph - N/A   Light Freezing Drizzle
6:30 PM 28.4 °F 24.6 °F 28.4 °F 100% 30.36 in 6.2 mi ESE 3.5 mph - N/A   Light Freezing Drizzle
7:00 PM 29 °F - 28 °F 92% 30.40 in 6 mi SE 4.5 mph - - Rain Light Freezing Drizzle
7:00 PM 28.4 °F 24.6 °F 26.6 °F 93% 30.36 in 6.2 mi SE 3.5 mph - N/A   Light Freezing Drizzle
7:30 PM 28.4 °F 22.2 °F 28.4 °F 100% 30.36 in 6.2 mi ESE 5.8 mph - N/A   Light Freezing Drizzle
8:00 PM 29 °F - 28 °F 92% 30.39 in 6 mi ESE 6.7 mph - - Rain Light Freezing Drizzle
8:00 PM 28.4 °F 21.2 °F 28.4 °F 100% 30.33 in 6.2 mi ESE 6.9 mph - N/A   Light Freezing Drizzle
8:30 PM 28.4 °F 21.2 °F 28.4 °F 100% 30.33 in 6.2 mi ESE 6.9 mph - N/A   Light Freezing Drizzle
9:00 PM 29 °F - 28 °F 93% 30.37 in 7 mi ESE 6.7 mph - - Rain Light Freezing Drizzle
9:00 PM 28.4 °F 20.4 °F 28.4 °F 100% 30.33 in 6.2 mi ESE 8.1 mph - N/A   Light Freezing Drizzle
9:30 PM 28.4 °F 21.2 °F 28.4 °F 100% 30.33 in 5.0 mi ESE 6.9 mph - N/A   Light Freezing Rain
10:00 PM 29 °F - 28 °F 93% 30.36 in 4 mi ESE 8.9 mph - - Rain Light Freezing Drizzle
10:00 PM 28.4 °F 20.4 °F 28.4 °F 100% 30.33 in 4.3 mi ESE 8.1 mph - N/A   Light Freezing Rain
10:30 PM 28.4 °F 19.1 °F 28.4 °F 100% 30.30 in 4.3 mi ESE 10.4 mph - N/A   Light Freezing Rain
11:00 PM 29 °F - 28 °F 94% 30.34 in 4 mi ESE 8.9 mph - - Rain Light Freezing Drizzle
11:00 PM 28.4 °F 20.4 °F 28.4 °F 100% 30.30 in 4.3 mi ESE 8.1 mph - N/A   Light Freezing Rain
11:30 PM 28.4 °F 20.4 °F 28.4 °F 100% 30.30 in 3.7 mi SE 8.1 mph - N/A   Light Freezing Rain